Startseite
Über Mich
AHP4
Galerie
Sehschlangen
Tourenbuch
Bookmarks
Elektronik
Bewertung
Geschichten
[Tagesmessung] [Jahreswerte] [Information]

Messwerte vom 16.04.2022

Die letzten Messwerte von 23:58:46 Uhr:
KategorieMesswert
Temperatur [°C]3
Luftdruck [mBar]1017
Sonneneinstrahlung0
Wind [km/h]0 aus Ost
Niederschlag [l/m²]0
rel.Luftfeucht.77.4%
CO2 [ppm]521

Diagramme
Messwerte vom 16.04.2022
Tagesaggregation
KategorieMinimumMaximumSchnittSumme
Temperatur [°C]0156.8708
Luftdruck [mBar]101410201017.6396
Sonneneinstrahlung248122.3354
Wind [km/h]17
rF [%]32.696.671.04
Niederschlag [l/m²]0
CO2 [ppm]401636499.1
Einordnung alsVegetationstag

Messungen an benachbarten Tagen: Zur Jahresaggregation 2022
Tabelle aller Messwerte
UhrzeitTemperatur [°C]Luftdruck [mBar]SonneWind [km/h]RichtungRegen [l/m²]rF [%]CO2 [ppm]
00:01:46 7 1014 0 2 SO 0 95.6 615
00:04:46 7 1014 0 1 N 0 95.9 623
00:07:47 7 1015 0 1 NO 0 96 636
00:10:46 7 1015 0 4 N 0 96 633
00:13:48 7 1016 0 1 SO 0 96 621
00:16:47 7 1015 0 3 NW 0 95.6 615
00:19:45 6 1014 0 3 N 0 95.6 612
00:22:45 6 1015 0 7 W 0 95.8 609
00:25:47 6 1016 0 6 NO 0 95.8 604
00:28:46 6 1015 0 3 N 0 95.9 604
00:31:48 6 1016 0 11 W 0 95.8 607
00:34:46 6 1016 0 9 N 0 95.9 606
00:37:44 6 1015 0 2 O 0 95.5 604
00:40:48 6 1016 0 4 NO 0 95.2 598
00:43:46 6 1016 0 3 0 94.5 594
00:46:47 6 1016 0 7 N 0 93.9 591
00:49:46 6 1016 0 9 NO 0 93.8 592
00:52:44 6 1015 0 2 NO 0 93.7 592
00:55:48 6 1016 0 10 NW 0 93.6 594
00:58:47 6 1016 0 4 SW 0 93.4 590
01:01:47 6 1016 0 8 N 0 92.7 589
01:04:47 6 1015 0 4 O 0 92.3 585
01:07:47 6 1015 0 3 N 0 92.3 591
01:10:46 6 1016 0 3 NO 0 92.4 592
01:13:48 6 1017 0 3 NW 0 92.1 586
01:16:49 6 1016 0 8 NO 0 92 588
01:19:47 6 1016 0 3 N 0 92.1 585
01:22:48 6 1016 0 3 N 0 92.2 583
01:25:45 6 1016 0 5 S 0 92.3 579
01:28:46 6 1016 0 4 N 0 92.2 578
01:31:49 6 1016 0 5 SO 0 92.2 583
01:34:47 6 1017 0 7 NO 0 92.3 592
01:37:49 6 1017 0 4 NW 0 92.2 594
01:40:48 6 1016 0 2 N 0 92 589
01:43:46 6 1016 0 4 N 0 91.8 589
01:46:45 6 1016 0 4 O 0 91.9 583
01:49:47 6 1016 0 4 N 0 91.6 580
01:52:44 6 1017 0 5 N 0 91.6 574
01:55:46 6 1016 0 9 NO 0 91.6 574
01:58:47 6 1016 0 6 N 0 91.8 578
02:01:46 6 1017 0 4 NW 0 91.9 574
02:04:48 6 1016 0 2 N 0 92.4 572
02:07:48 6 1016 0 4 NW 0 92.6 568
02:10:47 6 1016 0 8 N 0 92.5 571
02:13:47 6 1016 0 4 NO 0 92.2 573
02:16:47 5 1016 0 10 NO 0 92 565
02:19:46 5 1016 0 5 O 0 92.2 563
02:22:47 5 1017 0 6 N 0 92.3 564
02:25:47 5 1017 0 5 N 0 92.2 565
02:28:45 5 1017 0 5 N 0 92 560
02:31:46 5 1017 0 1 O 0 91.6 563
02:34:44 5 1017 0 4 N 0 91.6 571
02:37:47 5 1017 0 9 NO 0 91.2 568
02:40:46 5 1016 0 7 N 0 89.7 565
02:43:50 5 1016 0 6 SO 0 88.5 565
02:46:46 4 1016 0 8 N 0 89.3 565
02:49:46 4 1016 0 6 O 0 89.9 562
02:52:49 4 1017 0 7 NW 0 90.6 557
02:55:48 4 1016 0 5 N 0 91 553
02:58:45 4 1017 0 3 N 0 91.4 556
03:01:45 4 1017 0 3 N 0 91.7 559
03:04:45 4 1017 0 4 O 0 91.9 553
03:07:44 4 1017 0 5 N 0 92.1 550
03:10:46 4 1017 0 5 N 0 92.2 553
03:13:48 3 1017 0 3 O 0 92.4 563
03:16:46 3 1017 0 3 NO 0 92.6 562
03:19:43 3 1017 0 5 O 0 92.9 556
03:22:46 3 1017 0 2 O 0 93.3 551
03:25:46 3 1017 0 3 N 0 93.6 554
03:28:46 3 1017 0 3 O 0 94 560
03:31:47 3 1017 0 4 NO 0 94.3 556
03:34:48 3 1017 0 3 NW 0 94.6 545
03:37:47 3 1016 0 2 O 0 94.9 550
03:40:48 3 1017 0 2 NW 0 95.3 551
03:43:46 3 1017 0 1 SO 0 95.4 551
03:46:45 3 1017 0 2 NO 0 95.6 550
03:49:46 2 1016 0 1 SO 0 95.9 550
03:52:45 2 1017 0 4 O 0 96.1 545
03:55:49 2 1017 0 2 NO 0 96.5 548
03:58:45 2 1017 0 1 O 0 96.6 542
04:01:47 2 1017 0 2 NO 0 96.6 542
04:04:48 2 1017 0 2 SO 0 96.6 542
04:07:47 2 1017 0 3 NW 0 96.6 542
04:10:45 2 1017 0 2 N 0 96.6 539
04:13:44 2 1017 0 4 N 0 96.6 530
04:16:46 2 1017 0 3 NO 0 96.6 536
04:19:48 2 1017 0 1 N 0 96.6 538
04:22:47 2 1017 0 2 N 0 96.6 536
04:25:48 2 1017 0 2 NW 0 96.6 530
04:28:45 2 1017 0 1 SO 0 96.6 530
04:31:49 1 1017 0 2 NO 0 96.6 528
04:34:46 1 1017 0 2 O 0 96.6 544
04:37:47 1 1017 0 1 O 0 96.6 544
04:40:45 1 1017 0 1 N 0 96.6 548
04:43:48 1 1017 0 1 SO 0 96.6 547
04:46:45 1 1017 0 2 0 96.6 545
04:49:48 1 1017 0 1 SO 0 96.6 545
04:52:45 1 1017 0 1 NO 0 96.6 542
04:55:43 1 1017 0 0 O 0 96.6 545
04:58:47 1 1017 0 0 NO 0 96.6 536
05:01:46 1 1017 0 2 N 0 96.6 536
05:04:49 1 1017 0 2 W 0 96.6 536
05:07:50 1 1017 0 1 SO 0 96.6 540
05:10:47 1 1017 0 2 O 0 96.6 539
05:13:44 1 1017 0 2 O 0 96.6 541
05:16:46 1 1017 0 1 O 0 96.6 539
05:19:45 1 1017 0 1 N 0 96.6 535
05:22:48 1 1017 0 1 NO 0 96.6 536
05:25:44 1 1017 0 0 O 0 96.6 533
05:28:47 1 1017 0 3 SO 0 96.6 536
05:31:45 1 1017 0 2 N 0 96.6 533
05:34:46 1 1017 0 1 W 0 96.6 536
05:37:50 1 1017 0 0 NO 0 96.6 538
05:40:45 1 1017 0 4 N 0 96.6 541
05:43:46 1 1017 0 1 O 0 96.6 545
05:46:44 1 1017 0 2 N 0 96.6 541
05:49:48 1 1017 0 0 O 0 96.6 539
05:52:48 1 1017 3 0 O 0 96.6 533
05:55:47 0 1018 6 1 NO 0 96.6 536
05:58:45 0 1017 10 0 N 0 96.6 542
06:01:48 0 1017 15 8 N 0 96.6 536
06:04:46 0 1017 22 1 O 0 96.6 534
06:07:47 0 1017 32 0 NO 0 96.6 536
06:10:47 0 1017 42 2 W 0 96.6 545
06:13:48 0 1017 55 0 N 0 96.6 551
06:16:48 0 1018 67 0 NO 0 96.6 547
06:19:45 0 1017 80 0 O 0 96.6 548
06:22:49 0 1017 92 1 NO 0 96.6 542
06:25:47 0 1018 103 0 O 0 96.6 545
06:28:47 0 1017 113 0 O 0 96.6 539
06:31:48 0 1017 122 0 SO 0 96.6 547
06:34:46 0 1018 131 0 O 0 96.6 545
06:37:48 0 1017 138 1 SO 0 96.6 548
06:40:48 0 1017 144 0 NO 0 96.6 548
06:43:48 0 1017 149 0 NO 0 96.6 549
06:46:47 0 1017 154 0 O 0 96.6 543
06:49:48 0 1017 158 0 O 0 96.6 542
06:52:49 0 1017 161 0 O 0 96.6 546
06:55:46 0 1017 164 0 O 0 96.6 547
06:58:48 0 1018 167 0 O 0 96.6 548
07:01:47 0 1018 169 0 O 0 96.6 551
07:04:49 0 1018 171 0 NO 0 96.6 550
07:07:48 0 1017 173 1 N 0 96.6 556
07:10:50 2 1017 175 2 NW 0 96.6 549
07:13:47 3 1017 176 1 NO 0 96.6 553
07:16:48 3 1018 178 0 NO 0 96.5 562
07:19:46 3 1017 179 1 O 0 94.5 563
07:22:47 2 1017 180 2 N 0 93.7 556
07:25:50 2 1018 181 2 NW 0 95.3 556
07:28:46 2 1018 182 1 O 0 96.6 553
07:31:46 2 1018 183 1 O 0 96.6 561
07:34:49 2 1018 183 1 SO 0 96.6 553
07:37:47 2 1019 184 1 SO 0 96.6 560
07:40:46 2 1018 184 1 0 96.6 560
07:43:47 2 1018 185 1 NO 0 96.6 551
07:46:47 2 1019 185 5 N 0 96.6 556
07:49:48 2 1018 185 4 NO 0 96.6 539
07:52:49 2 1018 186 4 NO 0 96.6 551
07:55:47 2 1018 186 1 O 0 96.6 565
07:58:49 2 1019 186 1 S 0 96.6 574
08:01:49 2 1018 187 5 O 0 96.6 574
08:04:46 2 1019 187 4 O 0 96.6 578
08:07:48 2 1018 187 1 S 0 96.6 574
08:10:47 2 1018 188 8 N 0 96.6 579
08:13:48 2 1018 188 5 N 0 96.6 577
08:16:47 2 1018 188 5 N 0 96.6 580
08:19:49 3 1019 189 5 NO 0 96.6 580
08:22:49 3 1018 189 2 N 0 95.9 571
08:25:49 3 1019 189 2 SO 0 95.5 575
08:28:50 3 1019 189 6 NO 0 94.8 575
08:31:48 3 1018 190 3 NO 0 94.8 571
08:34:47 3 1018 190 2 N 0 94.3 562
08:37:50 3 1019 190 2 SO 0 93.8 551
08:40:48 3 1019 190 0 O 0 93.1 554
08:43:48 3 1019 191 0 W 0 92.8 545
08:46:47 3 1020 191 3 N 0 92.3 527
08:49:47 4 1019 191 4 O 0 91.4 513
08:52:47 4 1019 191 6 W 0 91.1 521
08:55:48 4 1019 191 2 S 0 90.8 530
08:58:47 4 1018 192 6 O 0 90.8 528
09:01:48 4 1019 192 6 O 0 90.5 530
09:04:47 4 1019 192 9 N 0 90.3 530
09:07:51 4 1019 192 4 SO 0 90.2 515
09:10:47 4 1019 194 3 S 0 90.8 497
09:13:48 4 1019 192 3 NO 0 89.6 495
09:16:48 4 1019 193 5 NO 0 89.1 514
09:19:46 4 1019 193 5 O 0 88 524
09:22:50 4 1019 193 7 NO 0 86.9 516
09:25:49 4 1019 194 5 SO 0 86.5 524
09:28:50 4 1019 201 5 S 0 86.6 533
09:31:50 4 1019 197 5 NO 0 85.9 568
09:34:49 4 1019 208 2 NO 0 84.9 570
09:37:45 5 1018 211 5 N 0 85.4 562
09:40:48 5 1019 200 8 N 0 85 521
09:43:48 5 1019 207 6 NO 0 85.3 528
09:46:50 5 1019 193 2 SO 0 82.4 550
09:49:47 5 1019 205 11 0 82.3 554
09:52:49 5 1019 197 6 NO 0 82 548
09:55:49 5 1019 200 5 NW 0 81.2 542
09:58:47 5 1019 201 3 SO 0 79.7 539
10:01:47 5 1019 196 1 NW 0 79.2 542
10:04:49 5 1020 201 4 O 0 80.2 550
10:07:49 6 1019 200 8 NO 0 80.6 550
10:10:48 6 1020 200 1 0 78.9 553
10:13:49 6 1019 209 0 N 0 78.8 550
10:16:47 6 1019 202 6 0 78.8 544
10:19:49 6 1019 205 7 SO 0 78.9 539
10:22:48 6 1019 202 5 NO 0 79.6 539
10:25:48 6 1019 200 11 O 0 79.6 544
10:28:46 6 1019 202 4 NO 0 76.3 547
10:31:47 6 1019 201 4 NW 0 75.3 541
10:34:47 6 1020 202 5 N 0 76 542
10:37:46 6 1020 201 5 S 0 75.1 536
10:40:49 6 1019 199 5 NW 0 74 530
10:43:48 6 1020 199 7 0 74.2 521
10:46:47 7 1020 199 5 S 0 74.1 524
10:49:47 7 1019 201 5 O 0 73 527
10:52:49 7 1020 200 10 NO 0 72.9 524
10:55:48 7 1020 199 5 O 0 74.2 495
10:58:49 7 1020 199 4 NO 0 74.8 462
11:01:48 7 1019 199 8 O 0 73.8 463
11:04:48 7 1019 199 9 N 0 72.6 483
11:07:48 7 1019 199 5 NW 0 72.1 498
11:10:47 7 1019 199 5 N 0 72.6 497
11:13:46 7 1020 199 3 O 0 72.7 505
11:16:47 7 1020 200 7 NO 0 72.8 507
11:19:47 7 1019 200 4 NO 0 72.5 507
11:22:48 7 1019 203 2 NO 0 71.7 495
11:25:47 7 1019 201 4 O 0 72.6 498
11:28:47 7 1020 200 1 SO 0 72.6 492
11:31:47 7 1019 200 2 NO 0 71.4 492
11:34:47 8 1019 201 5 0 70.7 492
11:37:49 8 1020 201 3 NO 0 68.3 486
11:40:50 8 1020 202 3 N 0 68.2 486
11:43:50 8 1020 200 4 NW 0 68.8 492
11:46:31 7 1020 200 6 N 0 61.2 492
11:49:49 8 1019 200 17 NO 0 64.2 507
11:52:52 8 1020 200 2 NW 0 66.2 515
11:55:49 8 1020 201 4 NW 0 65.8 516
11:58:48 8 1020 201 2 NO 0 64.8 510
12:01:48 8 1020 201 5 SW 0 63.8 504
12:04:48 8 1019 202 2 NO 0 64.9 495
12:07:46 8 1019 204 3 0 66.4 492
12:10:48 9 1019 184 3 NO 0 65.6 486
12:13:49 9 1020 182 4 NW 0 61.6 434
12:16:50 9 1020 183 5 W 0 62 407
12:19:33 8 1019 184 3 NO 0 54.6 405
12:22:48 9 1019 185 6 SO 0 59.9 406
12:25:50 10 1019 185 3 N 0 59.1 405
12:28:48 10 1020 185 2 SW 0 58.6 404
12:31:50 10 1019 205 3 SO 0 56.8 407
12:34:47 10 1019 205 7 S 0 55.6 401
12:37:47 10 1020 205 5 SO 0 54.7 404
12:40:50 10 1020 205 5 N 0 55.7 404
12:43:47 10 1020 206 5 0 54.4 402
12:46:49 10 1020 206 6 N 0 56.4 404
12:49:47 11 1020 207 6 N 0 55.8 404
12:52:47 11 1020 207 7 N 0 53.4 404
12:55:50 11 1020 208 5 SW 0 52.3 407
12:58:48 11 1020 208 3 N 0 51.3 425
13:01:49 11 1019 209 8 NO 0 50.5 433
13:04:48 11 1019 210 5 NW 0 50.6 437
13:07:51 11 1020 210 0 S 0 50 436
13:10:51 11 1019 211 10 NW 0 48.6 442
13:13:47 11 1020 212 4 NO 0 48 440
13:16:48 11 1020 212 4 S 0 48.7 451
13:19:51 11 1020 212 6 NW 0 49.5 457
13:22:47 11 1020 212 3 NO 0 49.3 457
13:25:48 11 1019 213 8 NO 0 49.4 458
13:28:48 12 1019 214 8 O 0 49.5 466
13:31:47 12 1020 214 5 O 0 47.4 466
13:34:49 11 1020 214 5 NO 0 47.3 472
13:37:30 10 1019 215 7 N 0 40 469
13:40:49 12 1020 217 3 SO 0 48.3 472
13:43:50 12 1019 220 2 NO 0 48.1 472
13:46:47 12 1019 222 3 SO 0 47.8 480
13:49:47 11 1019 223 3 O 0 46.7 481
13:52:46 12 1019 225 7 O 0 46.1 484
13:55:31 11 1020 227 14 N 0 40 478
13:58:48 11 1019 228 4 NW 0 43.4 477
14:01:47 11 1019 228 3 NW 0 44.8 478
14:04:48 12 1019 229 5 O 0 45 489
14:07:47 12 1019 229 3 O 0 46 498
14:10:50 12 1019 229 3 NW 0 44 498
14:13:49 12 1018 229 3 S 0 44.3 559
14:16:48 13 1019 230 1 NW 0 44.1 562
14:19:47 12 1019 232 3 S 0 42.2 562
14:22:49 12 1019 234 10 NO 0 41.3 551
14:25:46 12 1019 235 9 O 0 42.1 550
14:28:49 12 1018 235 8 N 0 42.2 544
14:31:47 12 1019 240 12 N 0 42.5 554
14:34:48 12 1019 208 7 NW 0 44.4 546
14:37:48 13 1019 233 8 0 44.3 489
14:40:49 13 1019 246 5 NO 0 44.2 446
14:43:47 13 1018 243 10 N 0 42.7 448
14:46:47 13 1019 243 5 O 0 43.1 466
14:49:48 13 1019 243 11 SW 0 43.1 465
14:52:48 13 1019 243 2 NW 0 41.4 469
14:55:46 13 1019 244 7 SO 0 41.1 475
14:58:46 13 1019 244 6 N 0 41.9 481
15:01:48 12 1019 244 8 NO 0 41.6 484
15:04:47 13 1018 244 3 O 0 41.6 495
15:07:50 13 1018 244 7 N 0 42 507
15:10:49 13 1018 245 8 N 0 42.9 507
15:13:48 13 1019 245 6 NW 0 43.3 513
15:16:46 13 1018 245 1 N 0 43.5 513
15:19:46 12 1019 245 6 N 0 41.8 512
15:22:49 13 1019 246 4 NO 0 41.6 512
15:25:48 13 1017 245 6 NW 0 41.6 515
15:28:46 13 1018 246 3 O 0 41.2 516
15:31:49 13 1019 246 8 NO 0 41.8 515
15:34:50 13 1018 246 5 NW 0 41 524
15:37:48 12 1018 246 3 N 0 41.3 530
15:40:48 13 1018 246 3 N 0 44.9 534
15:43:50 13 1018 246 3 N 0 43.8 542
15:46:47 13 1018 246 6 O 0 41.7 546
15:49:49 13 1018 246 3 SW 0 41.7 519
15:52:48 13 1017 246 11 N 0 40.7 411
15:55:46 13 1017 246 1 S 0 39.9 404
15:58:48 14 1018 246 1 S 0 40.5 407
16:01:47 14 1018 246 2 O 0 40.2 407
16:04:47 14 1017 246 3 S 0 39.7 407
16:07:46 13 1017 246 1 O 0 37.9 407
16:10:50 13 1018 247 9 N 0 37 407
16:13:47 13 1018 247 6 O 0 36.7 404
16:16:47 13 1018 247 8 N 0 37.8 404
16:19:47 13 1017 246 4 N 0 38.6 405
16:22:47 13 1017 247 2 NW 0 39.4 404
16:25:48 14 1017 247 4 N 0 37.6 407
16:28:47 13 1017 247 1 O 0 37.4 407
16:31:48 13 1017 247 3 NW 0 38 411
16:34:49 13 1017 247 7 NO 0 39.3 404
16:37:49 14 1018 247 9 NO 0 38.8 404
16:40:49 13 1017 247 7 NO 0 37.9 408
16:43:48 14 1017 247 2 O 0 37.8 407
16:46:49 14 1017 247 1 NW 0 38.7 407
16:49:47 14 1018 247 4 N 0 37.7 404
16:52:49 14 1018 212 5 N 0 35.6 405
16:55:49 14 1018 211 3 NO 0 35.1 405
16:58:47 14 1017 211 7 N 0 36.1 404
17:01:48 14 1017 211 1 S 0 35.5 404
17:04:47 14 1017 211 8 N 0 36.5 404
17:07:46 14 1018 210 3 N 0 35.6 404
17:10:49 14 1017 210 8 NO 0 34.9 405
17:13:49 14 1017 209 14 NW 0 35.2 404
17:16:48 14 1017 209 1 NO 0 35.8 405
17:19:51 14 1017 209 12 NO 0 34.4 405
17:22:48 14 1018 209 5 NW 0 35.3 407
17:25:49 14 1017 208 9 NW 0 35.6 407
17:28:48 14 1017 208 1 NO 0 35.5 404
17:31:48 14 1017 248 4 SO 0 35.6 404
17:34:46 14 1017 247 4 O 0 34.6 405
17:37:51 14 1017 247 2 SO 0 33.8 404
17:40:47 14 1017 247 3 W 0 33.2 408
17:43:46 14 1017 247 5 O 0 34.6 401
17:46:47 14 1017 247 5 O 0 34 407
17:49:46 14 1017 247 5 NO 0 33.4 418
17:52:46 14 1017 247 6 N 0 34.3 424
17:55:48 14 1017 247 4 SO 0 33 422
17:58:48 14 1017 247 3 O 0 33 430
18:01:49 14 1017 247 5 NW 0 33.2 431
18:04:47 14 1017 247 4 S 0 34 434
18:07:48 15 1017 247 5 NW 0 33.8 436
18:10:51 15 1017 247 0 N 0 33.8 432
18:13:48 15 1017 247 2 NO 0 32.6 443
18:16:49 15 1017 247 1 NO 0 32.8 451
18:19:49 15 1017 247 8 NW 0 32.9 445
18:22:46 14 1017 247 4 N 0 33.7 444
18:25:45 14 1017 245 3 O 0 34.3 437
18:28:46 14 1017 242 4 O 0 34.9 434
18:31:49 13 1017 244 7 N 0 35.5 428
18:34:48 13 1017 240 2 O 0 35.7 427
18:37:49 13 1017 234 9 NW 0 36.1 431
18:40:48 13 1017 225 4 N 0 36.6 434
18:43:47 13 1017 238 3 S 0 36.7 434
18:46:47 13 1017 237 1 N 0 36.6 433
18:49:47 12 1017 235 3 O 0 37.4 433
18:52:49 12 1017 226 5 NO 0 38 436
18:55:45 12 1017 231 2 N 0 38.4 439
18:58:45 12 1017 230 6 S 0 39 433
19:01:47 12 1017 224 2 NO 0 39.2 433
19:04:47 12 1017 241 0 O 0 39.4 431
19:07:48 12 1017 243 2 O 0 40 430
19:10:46 12 1017 242 0 O 0 40.4 436
19:13:46 12 1017 239 1 O 0 41.5 434
19:16:49 11 1017 234 3 NO 0 41.8 433
19:19:47 11 1017 208 2 N 0 41.8 424
19:22:46 11 1017 229 2 S 0 43 424
19:25:49 11 1017 217 2 NO 0 44 421
19:28:46 11 1017 198 1 O 0 44.5 427
19:31:50 11 1017 198 2 NO 0 45.5 434
19:34:47 11 1017 194 3 SO 0 46.2 430
19:37:50 11 1017 183 2 NW 0 46.3 433
19:40:47 10 1017 180 2 NO 0 47.6 425
19:43:49 10 1017 177 2 NW 0 48.9 420
19:46:48 10 1017 173 4 N 0 49.2 418
19:49:47 10 1017 169 1 N 0 49.7 424
19:52:49 10 1017 165 0 SO 0 50.5 416
19:55:50 10 1017 160 0 NO 0 51 418
19:58:48 10 1017 155 1 NW 0 51.7 424
20:01:49 10 1017 148 0 NO 0 52 422
20:04:48 9 1017 140 0 O 0 52.7 422
20:07:50 9 1017 132 0 N 0 53.5 416
20:10:48 9 1017 122 0 NO 0 53.6 416
20:13:46 9 1017 111 0 N 0 54.6 419
20:16:48 9 1017 99 0 NO 0 55.7 415
20:19:47 8 1017 86 0 SW 0 55.9 416
20:22:47 8 1017 73 0 S 0 56.9 419
20:25:48 8 1017 59 0 SO 0 57.4 418
20:28:47 8 1017 46 0 O 0 57.7 415
20:31:46 8 1017 34 0 O 0 58.2 413
20:34:45 8 1017 23 0 O 0 58.9 410
20:37:48 8 1017 15 0 O 0 59.6 413
20:40:48 8 1017 10 0 O 0 60.1 418
20:43:45 8 1017 6 2 NO 0 60.3 421
20:46:47 8 1017 4 2 NO 0 61.2 421
20:49:46 7 1017 0 0 NO 0 61.6 418
20:52:44 7 1018 0 0 N 0 61.9 419
20:55:45 7 1017 0 0 O 0 62.4 421
20:58:46 7 1017 0 0 NO 0 62.5 421
21:01:47 7 1018 0 0 NO 0 62.6 421
21:04:47 7 1017 0 0 NO 0 62.6 424
21:07:47 7 1017 0 0 NO 0 62.9 418
21:10:46 7 1017 0 0 NO 0 63.6 418
21:13:47 7 1017 0 0 NO 0 63.7 416
21:16:46 6 1017 0 0 NO 0 63.7 422
21:19:48 6 1017 0 0 NO 0 64.2 424
21:22:46 6 1017 0 0 NO 0 64.8 425
21:25:45 6 1017 0 0 NO 0 65.3 418
21:28:45 6 1017 0 0 NO 0 65.9 415
21:31:48 5 1017 0 0 NO 0 66.6 415
21:34:45 5 1017 0 0 NO 0 67.1 418
21:37:48 5 1017 0 0 NO 0 67.4 419
21:40:47 5 1017 0 0 NO 0 67.7 419
21:43:49 5 1017 0 0 NO 0 68.5 422
21:46:46 5 1017 0 0 NO 0 69.1 424
21:49:45 5 1017 0 0 NO 0 69.1 421
21:52:47 5 1018 0 0 NO 0 69.3 421
21:55:45 5 1017 0 0 NO 0 70.2 419
21:58:45 5 1017 0 0 NO 0 70.6 424
22:01:51 5 1017 0 0 NO 0 71 424
22:04:47 5 1017 0 0 NO 0 70.9 427
22:07:47 4 1017 0 0 NO 0 70.9 427
22:10:47 4 1017 0 0 NO 0 71.1 424
22:13:48 4 1018 0 0 NO 0 71.7 424
22:16:47 4 1017 0 0 NO 0 72.1 425
22:19:47 4 1017 0 0 NO 0 72.1 436
22:22:47 4 1017 0 0 NO 0 72.6 448
22:25:45 4 1017 0 0 NO 0 73.2 463
22:28:45 4 1017 0 0 NO 0 74.1 468
22:31:46 4 1018 0 0 NO 0 73.9 468
22:34:46 4 1017 0 0 NO 0 73.9 469
22:37:46 4 1018 0 0 S 0 74 475
22:40:45 4 1018 0 0 S 0 73.9 474
22:43:47 4 1017 0 0 S 0 74.2 483
22:46:45 4 1017 0 0 S 0 74.7 468
22:49:45 4 1017 0 0 S 0 74.9 474
22:52:44 4 1017 0 0 S 0 75 477
22:55:45 4 1017 0 0 S 0 76.1 474
22:58:45 4 1017 0 0 S 0 75.4 478
23:01:46 4 1017 0 0 S 0 76.6 486
23:04:46 4 1017 0 0 N 0 77 483
23:07:48 4 1017 0 0 NO 0 78.8 477
23:10:46 4 1017 0 0 O 0 79 494
23:13:45 4 1017 0 0 O 0 78.5 506
23:16:45 4 1017 0 0 S 0 77.3 509
23:19:45 4 1017 0 0 S 0 76.4 504
23:22:47 4 1017 0 0 S 0 76.5 512
23:25:46 3 1017 0 0 S 0 77.2 510
23:28:49 3 1018 0 0 S 0 77.7 516
23:31:50 3 1017 0 0 S 0 78.2 524
23:34:47 3 1017 0 0 S 0 78.5 527
23:37:45 3 1017 0 0 S 0 78.8 526
23:40:47 3 1017 0 0 O 0 79.5 515
23:43:45 3 1017 0 0 O 0 79.8 515
23:46:48 3 1017 0 0 SO 0 79.9 510
23:49:46 3 1017 0 0 O 0 79.8 507
23:52:45 3 1017 0 0 O 0 78.1 509
23:55:46 3 1017 0 0 SO 0 77.5 516
23:58:46 3 1017 0 0 O 0 77.4 521

Letzte Änderung : 22-Jul-2022
Copyright Jens Köhler, Wolfsburg, Obere Dorfstraße 10d